[[{"header":{"parameterUnit":"m.s-1","parameterCategory":1,"la1":30.2991,"la2":30.254,"lo1":-89.0895,"lo2":-89.0444,"dx":0.0017,"dy":0.0017,"nx":28,"ny":28,"refTime":"2022-11-28T15:00:00:Z","depth":0,"parameterNumber":2,"parameterNumberName":"U-component_of_WINDS"},"data":[0,0,0,0,0,0,0,0,0,0,0,0,0,0,0,0,0,0,0,0,0,0,0,0,0,0,0,0,0,0,0,0,0,0,0,0,0,0,0,0,0,0,0,0,0,0,0,0,0,0,0,0,0,0,0,0,0,0,-1.8035,-1.8036,0,-1.8082,-1.8082,-1.8083,-1.8076,-1.8076,-1.8075,-1.8074,-1.8121,-1.8122,-1.8124,0,0,0,0,0,0,0,0,0,0,0,0,0,-1.7942,-1.7943,-1.8035,-1.8036,-1.8036,-1.8082,-1.8082,-1.8083,-1.8077,-1.8076,-1.8075,-1.8074,-1.812,-1.8122,-1.8125,0,0,0,0,0,0,0,0,0,0,0,0,0,-1.7985,-1.7944,-1.8035,-1.8039,-1.804,-1.8081,-1.8082,-1.8083,-1.8077,-1.8076,-1.8075,-1.8073,-1.8119,-1.8122,-1.8125,-1.8166,0,0,-1.8134,-1.8135,0,0,0,0,0,0,0,0,-1.7982,-1.7988,-1.8038,-1.8039,-1.804,-1.8072,-1.8066,-1.8111,-1.8077,-1.8063,-1.8074,-1.8073,-1.8105,-1.8109,-1.812,-1.8168,-1.817,-1.8134,-1.8136,-1.8137,-1.8138,0,0,0,0,0,0,0,-1.7979,-1.7986,-1.8054,-1.8038,-1.804,-1.8038,-1.8043,-1.8075,-1.809,-1.8064,-1.8063,-1.8069,-1.8106,-1.8118,-1.8121,-1.817,-1.8134,-1.8136,-1.8138,-1.8139,-1.8256,-1.8257,0,0,0,0,0,0,-1.7975,-1.7984,-1.8052,-1.8055,-1.8008,-1.8041,-1.8046,-1.8063,-1.8089,-1.8092,-1.807,-1.8069,-1.8113,-1.8118,-1.8123,-1.8174,-1.8137,-1.814,-1.8141,-1.8254,-1.8256,-1.8257,0,0,0,0,0,0,-1.7973,-1.7982,-1.805,-1.8019,-1.8028,-1.8044,-1.8062,-1.8064,-1.8076,-1.8094,-1.8097,-1.808,-1.8112,-1.8119,-1.8156,-1.8175,-1.8141,-1.8144,-1.8253,-1.8255,-1.8257,-1.8274,0,0,0,0,0,0,-1.7971,-1.7981,-1.7996,-1.802,-1.803,-1.8082,-1.8064,-1.8066,-1.8082,-1.808,-1.8104,-1.8107,-1.8112,-1.8151,-1.8158,-1.8178,-1.8146,-1.8251,-1.8254,-1.8256,-1.8272,-1.8277,-1.8281,0,0,0,0,0,-1.7967,-1.7999,-1.7997,-1.8005,-1.8049,-1.8083,-1.8089,-1.8095,-1.8083,-1.8099,-1.8111,-1.8106,-1.8172,-1.8155,-1.8163,-1.8184,-1.825,-1.8253,-1.8256,-1.827,-1.8276,-1.828,0,0,0,0,0,0,-1.7976,-1.8002,-1.8,-1.804,-1.806,-1.8082,-1.8102,-1.81,-1.8123,-1.8121,-1.8127,-1.8132,-1.817,-1.8181,-1.8161,-1.8226,-1.8209,-1.8214,-1.8217,-1.8223,-1.8227,-1.8223,-1.8148,0,0,0,0,0,-1.7983,-1.8008,-1.8029,-1.8062,-1.8072,-1.8086,-1.81,-1.8104,-1.8124,-1.8132,-1.8146,-1.8166,-1.8191,-1.8208,-1.8232,-1.8274,-1.8279,-1.8293,-1.8297,-1.83,-1.8304,-1.8329,-1.8335,-1.8267,-1.8267,-1.8267,0,0,-1.7997,-1.8014,-1.8029,-1.8065,-1.808,-1.8107,-1.8092,-1.812,-1.814,-1.8136,-1.8172,-1.8183,-1.8206,-1.8246,-1.8264,-1.8256,-1.8324,-1.8304,-1.8307,-1.8309,-1.8332,-1.8339,-1.8344,-1.8269,-1.8269,-1.8269,0,0,-1.8036,-1.8051,-1.8081,-1.8097,-1.8121,-1.813,-1.8137,-1.8161,-1.8168,-1.8205,-1.8202,-1.8226,-1.8269,-1.8286,-1.83,-1.8348,-1.8344,-1.8356,-1.8378,-1.8401,-1.8407,-1.8411,-1.8429,-1.8435,-1.8359,-1.836,-1.836,0,-1.8049,-1.8089,-1.8096,-1.8125,-1.8141,-1.814,-1.8171,-1.8186,-1.8217,-1.8228,-1.8219,-1.8274,-1.8289,-1.8334,-1.8346,-1.8357,-1.8366,-1.8352,-1.8405,-1.841,-1.8415,-1.8432,-1.8438,-1.8361,-1.8361,-1.836,-1.836,0,-1.8106,-1.8133,-1.8155,-1.8185,-1.8204,-1.8234,-1.8246,-1.8264,-1.8266,-1.8276,-1.8314,-1.8332,-1.8361,-1.8372,-1.8374,-1.8417,-1.8411,-1.8404,-1.8387,-1.8422,-1.8438,-1.8445,-1.8362,-1.8362,-1.8362,-1.8361,0,0,-1.8149,-1.8185,-1.8193,-1.8208,-1.8235,-1.8257,-1.8287,-1.8316,-1.8332,-1.8353,-1.8379,-1.8417,-1.8411,-1.8427,-1.8431,-1.8452,-1.849,-1.8442,-1.8443,-1.8451,-1.854,-1.8545,-1.8552,-1.8488,-1.8489,-1.849,-1.8538,0,-1.8191,-1.8245,-1.8253,-1.83,-1.8327,-1.8327,-1.8354,-1.8374,-1.8384,-1.8409,-1.842,-1.8447,-1.8437,-1.8447,-1.8468,-1.8481,-1.8508,-1.8477,-1.8512,-1.8514,-1.8507,-1.8561,-1.8566,-1.861,-1.8544,-1.8545,-1.8546,0,-1.8246,-1.8271,-1.8321,-1.8347,-1.8358,-1.8381,-1.841,-1.8433,-1.8456,-1.8462,-1.8482,-1.8484,-1.8516,-1.8499,-1.8543,-1.8523,-1.8538,-1.8547,-1.8549,-1.8552,-1.8532,-1.8565,-1.8624,-1.8631,-1.8556,-1.8555,-1.8554,0,-1.8274,-1.8319,-1.8355,-1.8368,-1.8398,-1.8415,-1.8429,-1.8451,-1.8469,-1.8493,-1.8505,-1.8533,-1.8548,-1.857,-1.858,-1.8566,-1.8624,-1.8607,-1.8631,-1.8631,-1.8642,-1.8641,-1.8704,-1.8652,-1.8652,-1.8652,-1.8652,0,-1.8319,-1.835,-1.8368,-1.8391,-1.8426,-1.8436,-1.847,-1.8483,-1.8503,-1.8529,-1.8531,-1.8554,-1.8566,-1.8592,-1.86,-1.8637,-1.8643,-1.865,-1.8652,-1.865,-1.8649,-1.8659,-1.8656,-1.8654,-1.8654,-1.8653,-1.8653,0,-1.8355,-1.8369,-1.8408,-1.8435,-1.8442,-1.8467,-1.849,-1.8512,-1.8524,-1.8556,-1.8564,-1.8582,-1.8612,-1.8625,-1.8662,-1.8668,-1.871,-1.8709,-1.8702,-1.8703,-1.8726,-1.8723,-1.8797,-1.8808,-1.8749,-1.8749,-1.875,0,-1.8383,-1.8407,-1.8437,-1.8454,-1.8468,-1.8496,-1.8514,-1.8526,-1.8544,-1.8574,-1.8593,-1.8624,-1.8649,-1.8698,-1.8714,-1.8743,-1.8744,-1.8768,-1.8748,-1.8746,-1.8744,-1.8743,-1.8746,-1.8771,-1.8771,-1.8772,-1.8772,0,-1.8431,-1.8437,-1.8463,-1.8493,-1.8515,-1.8538,-1.8561,-1.8575,-1.859,-1.8612,-1.8644,-1.8663,-1.8702,-1.8733,-1.8764,-1.8778,-1.8778,-1.8779,-1.8786,-1.8784,-1.8779,-1.8782,-1.8712,-1.8777,-1.8776,-1.8776,-1.8776,-1.8775,-1.8464,-1.8486,-1.8511,-1.854,-1.8559,-1.8581,-1.8604,-1.8619,-1.8646,-1.8679,-1.8684,-1.8718,-1.8743,-1.8784,-1.8799,-1.8827,-1.882,-1.883,-1.8833,-1.8835,-1.8837,-1.8775,-1.8832,-1.8832,-1.8832,-1.8832,-1.8832,0,-1.8512,-1.8529,-1.8556,-1.8589,-1.8613,-1.8612,-1.8638,-1.8658,-1.8688,-1.8711,-1.8737,-1.8774,-1.8805,-1.8825,-1.8856,-1.8874,-1.8875,-1.8881,-1.888,-1.8884,-1.8841,-1.8832,-1.888,-1.888,-1.888,-1.888,-1.888,-1.888,-1.854,-1.8578,-1.8587,-1.8635,-1.8651,-1.8685,-1.87,-1.8721,-1.8739,-1.8781,-1.8807,-1.882,-1.8842,-1.8875,-1.8904,-1.8909,-1.892,-1.8927,-1.8932,-1.8891,-1.8886,-1.8882,-1.8873,-1.893,-1.893,-1.8973,-1.8973,-1.8974]},{"header":{"parameterUnit":"m.s-1","parameterCategory":1,"la1":30.2991,"la2":30.254,"lo1":-89.0895,"lo2":-89.0444,"dx":0.0017,"dy":0.0017,"nx":28,"ny":28,"refTime":"2022-11-28T15:00:00:Z","depth":0,"parameterNumber":3,"parameterNumberName":"V-component_of_WINDS"},"data":[0,0,0,0,0,0,0,0,0,0,0,0,0,0,0,0,0,0,0,0,0,0,0,0,0,0,0,0,0,0,0,0,0,0,0,0,0,0,0,0,0,0,0,0,0,0,0,0,0,0,0,0,0,0,0,0,0,0,0.9585,0.9584,0,0.9497,0.9496,0.9495,0.9531,0.9533,0.9535,0.9537,0.9439,0.9435,0.943,0,0,0,0,0,0,0,0,0,0,0,0,0,0.9779,0.9776,0.9585,0.9584,0.9583,0.9497,0.9496,0.9494,0.9531,0.9533,0.9536,0.9538,0.9441,0.9435,0.943,0,0,0,0,0,0,0,0,0,0,0,0,0,0.9693,0.9774,0.9586,0.9591,0.9591,0.9497,0.9496,0.9494,0.953,0.9533,0.9537,0.954,0.9442,0.9436,0.9429,0.9322,0,0,0.9408,0.9405,0,0,0,0,0,0,0,0,0.9698,0.9686,0.9591,0.9591,0.959,0.9529,0.9528,0.9436,0.9529,0.9553,0.9537,0.9541,0.9466,0.9457,0.9433,0.9318,0.9314,0.9407,0.9403,0.94,0.9398,0,0,0,0,0,0,0,0.9704,0.969,0.955,0.959,0.9589,0.9596,0.9587,0.9511,0.9492,0.9551,0.9554,0.9543,0.9466,0.944,0.9431,0.9312,0.9407,0.9401,0.9397,0.9394,0.9104,0.91,0,0,0,0,0,0,0.9711,0.9695,0.9553,0.9548,0.9653,0.959,0.958,0.9545,0.9493,0.9489,0.954,0.9545,0.945,0.9439,0.9428,0.9298,0.94,0.9394,0.939,0.9107,0.9103,0.9099,0,0,0,0,0,0,0.9715,0.9698,0.9557,0.9622,0.9604,0.9583,0.9543,0.9541,0.9515,0.9485,0.9481,0.9518,0.9452,0.9438,0.9349,0.9296,0.939,0.9384,0.9112,0.9106,0.9101,0.904,0,0,0,0,0,0,0.972,0.9699,0.966,0.9621,0.9601,0.948,0.954,0.9537,0.9504,0.951,0.9463,0.9458,0.9453,0.9359,0.9342,0.9288,0.9379,0.9116,0.9109,0.9103,0.9046,0.9033,0.9021,0,0,0,0,0,0.9727,0.9645,0.9658,0.964,0.9552,0.9477,0.9466,0.9464,0.95,0.9459,0.944,0.9459,0.9305,0.9349,0.9331,0.9274,0.9119,0.9111,0.9103,0.9052,0.9035,0.9022,0,0,0,0,0,0,0.9675,0.964,0.9654,0.9557,0.952,0.9484,0.9432,0.9447,0.9398,0.9404,0.9403,0.9392,0.93,0.9278,0.9328,0.9168,0.9217,0.9205,0.9185,0.9169,0.9157,0.9162,0.9373,0,0,0,0,0,0.9653,0.9598,0.9569,0.9486,0.9467,0.9453,0.9421,0.9423,0.9384,0.9368,0.9342,0.9302,0.9244,0.9206,0.9151,0.9045,0.9034,0.8996,0.8984,0.8974,0.8962,0.8903,0.8885,0.9073,0.9073,0.9073,0,0,0.9605,0.9579,0.9544,0.9475,0.9447,0.9388,0.9439,0.9375,0.933,0.9357,0.9272,0.9252,0.9206,0.9108,0.9063,0.9087,0.8909,0.8964,0.8956,0.8949,0.8893,0.8875,0.8859,0.9067,0.9068,0.9069,0,0,0.9488,0.9464,0.9391,0.9363,0.9321,0.9312,0.9295,0.9257,0.9245,0.916,0.918,0.9126,0.9027,0.8993,0.8963,0.8835,0.885,0.8817,0.8751,0.8693,0.8678,0.8665,0.8617,0.86,0.8807,0.8806,0.8806,0,0.9432,0.9347,0.9351,0.9285,0.9253,0.9279,0.9205,0.9176,0.9117,0.9094,0.9122,0.8999,0.897,0.8864,0.8833,0.8808,0.8786,0.8821,0.8681,0.8667,0.8655,0.8609,0.8591,0.8802,0.8803,0.8803,0.8804,0,0.928,0.922,0.9166,0.9112,0.9074,0.9004,0.8996,0.8957,0.8964,0.8951,0.8864,0.8831,0.877,0.8745,0.875,0.8639,0.8655,0.8682,0.8731,0.8633,0.859,0.8572,0.8797,0.8798,0.8799,0.88,0,0,0.9124,0.9075,0.9055,0.903,0.8987,0.8939,0.887,0.8813,0.8778,0.8738,0.8677,0.8594,0.862,0.8585,0.8587,0.8537,0.8434,0.857,0.8568,0.8543,0.8308,0.8286,0.8265,0.8446,0.8443,0.844,0.8311,0,0.9001,0.8882,0.8885,0.8773,0.8716,0.8741,0.868,0.8646,0.8633,0.8581,0.8567,0.8507,0.8546,0.8525,0.8477,0.8457,0.8387,0.8467,0.8387,0.8384,0.8395,0.8243,0.8219,0.8099,0.8294,0.8291,0.8289,0,0.8841,0.8798,0.8681,0.8646,0.8622,0.8568,0.8516,0.8467,0.8428,0.8422,0.8385,0.8395,0.8322,0.8377,0.8275,0.833,0.8298,0.8283,0.8279,0.8268,0.8328,0.8226,0.806,0.8041,0.8263,0.8265,0.8267,0,0.8736,0.8649,0.8567,0.8546,0.8503,0.8464,0.8444,0.8409,0.8375,0.8329,0.8306,0.8251,0.822,0.8176,0.817,0.8211,0.8067,0.8121,0.8058,0.8057,0.8023,0.8025,0.7847,0.8008,0.8008,0.8008,0.8009,0,0.8597,0.8524,0.852,0.8469,0.8387,0.8391,0.8309,0.8293,0.8261,0.8206,0.8224,0.8172,0.8169,0.8114,0.8109,0.8024,0.8011,0.8002,0.8,0.7998,0.7999,0.7975,0.7982,0.8004,0.8005,0.8006,0.8006,0,0.8465,0.8459,0.8372,0.834,0.833,0.8271,0.8243,0.8194,0.8184,0.8114,0.8098,0.8081,0.8018,0.8008,0.7934,0.793,0.7828,0.7837,0.7841,0.7842,0.7777,0.7783,0.7575,0.7547,0.7729,0.7727,0.7726,0,0.8375,0.8319,0.8283,0.8248,0.8227,0.8172,0.8137,0.8139,0.8102,0.8054,0.801,0.795,0.7901,0.7799,0.7778,0.7721,0.7727,0.7658,0.7718,0.7717,0.7722,0.7724,0.7718,0.7645,0.7643,0.7642,0.7641,0,0.8215,0.8215,0.8166,0.8116,0.8075,0.8035,0.7997,0.7968,0.7965,0.7922,0.7859,0.7821,0.7747,0.7685,0.7629,0.7606,0.7621,0.7623,0.7604,0.76,0.7604,0.7598,0.7807,0.7626,0.7628,0.7629,0.763,0.763,0.8099,0.8051,0.8017,0.7962,0.7935,0.7899,0.7851,0.7837,0.7785,0.7726,0.773,0.766,0.7622,0.7549,0.7522,0.7466,0.7488,0.7462,0.7455,0.7447,0.744,0.7616,0.7456,0.7456,0.7457,0.7457,0.7457,0,0.7938,0.7919,0.7868,0.7816,0.7772,0.7794,0.7754,0.7714,0.7654,0.7618,0.7571,0.7498,0.7439,0.7415,0.7357,0.7316,0.7321,0.73,0.7302,0.7296,0.7425,0.7445,0.7297,0.7297,0.7297,0.7297,0.7297,0.7297,0.7849,0.7768,0.7764,0.7669,0.765,0.7583,0.7558,0.7525,0.7497,0.7415,0.7367,0.7354,0.7322,0.7262,0.7208,0.7202,0.7178,0.7153,0.715,0.7271,0.7287,0.7302,0.7321,0.7149,0.7149,0.7025,0.7024,0.7023]}]]